THORAD AGENA D DEB, 4734

Orbit data source: Space-Track

THORAD AGENA D DEB, 4734 is space debris in SSO originally from a launch on Wed, 08 Apr 1970 UTC launched from the Air Force Western Test Range (AFWTR). Debris objects in space refer to the collection of defunct objects orbiting the Earth. Examples of debris include non-operational satellites, rocket bodies, and fragments generated from explosions, collisions, or faulty payload assembly.

Loading next visibility...
Identifier
4734, 1970-025CH
Orbit
SSO
Country
Flag of USUS
Related business
Manufacturer
Unknown
Mission
Spacecraft
Bus & Motor
Unknown
Mass
Unknown
Launch date (UTC)
1970-04-08 (56 years ago)
Launch vehicle
Unknown
Launch site
Air Force Western Test Range (AFWTR)
Object type
Payload
Rocket body
Debris
Shape & HBR
Unknown shape, 0.1 m
Radar Cross Section
Medium (>0.1 m² and <1 m²)

Expand to show TLE details & history
Last TLE update: 13 hours ago

TLE from 13 hours ago
0 THORAD AGENA D DEB
1 04734U 70025CH  26169.17569700  .00000257  00000-0  25948-3 0  9996
2 04734 100.1031 254.2182 0081196 359.1689   0.9317 13.86451029822704
Epoch: 2026-06-18T04:13Z
TLE epoch observation values (Epoch: 2026-06-18T04:13:00.220Z)
Latitude
-0.00005°
Longitude
-75.4555°
Altitude
884.483 km
Speed
7.44 km/s
True Right ascension
16h 56m 52s
True Declination
0° 00' 00"
Sunlit
Object was in full shadow at epoch
Visualization orbit readout
Latitude
Unknown
Longitude
Unknown
Altitude
Unknown
Speed
Unknown
Apparent Right ascension
Unknown
Apparent Declination
Unknown
Sunlit
N/A
Visualization observer readout
Local Sidereal Time
04:15:18
Azimuth
Unknown
Elevation
Unknown
Doppler factor
Unknown
Orbital elements
Apogee altitude
997.776 km
Perigee altitude
878.962 km
Semi-major axis
7,316.506 km
Eccentricity
0.00812
Inclination
100.1031°
RAAN
254.2182°
Arg. of periapsis
359.1689°
True anomaly
0.94698°
Mean anomaly
0.9317°
Eccentric anomaly
0.93933°
Mean motion
3.46807 °/min
Orbital period
103.8 mins
BSTAR
0.00025948
Loading maneuver chart data...
Computing Atmospheric mass density...
Loading historical data...
Loading historical data...
Loading historical data...
Loading historical data...
Loading historical data...
Loading historical data...
Loading historical data...

Documentation

Showing up to 5 results
|